#�ϑ�����,���ϕ���,���ϕ���,�ő啗��,�ő啗����������,�ő�u�ԕ���,�ő�u�ԕ�����������
#(�N����),(m/s)   ,(16����),(m/s)   ,(16����)        ,(m/s)       ,(16����)            
2012/1/17 14:02,1.8,16,1.8,15,2.2,15
2012/1/17 14:03,2,16,2,16,2.7,16
2012/1/17 14:04,1.9,16,1.9,16,3,1
2012/1/17 14:05,2,1,2,16,3.7,2
2012/1/17 14:06,2.1,1,2.1,1,3.5,16
2012/1/17 14:07,2.1,16,2.1,1,4.3,16
2012/1/17 14:08,2.1,16,2.1,1,2.5,2
2012/1/17 14:09,2,16,2.1,1,3.8,16
2012/1/17 14:10,2,16,2,1,4.4,2
2012/1/17 14:11,2.1,16,2.1,1,4.9,16
2012/1/17 14:12,2.2,16,2.2,16,5.5,15
2012/1/17 14:13,2.4,16,2.4,16,5.8,15
2012/1/17 14:14,2.6,16,2.6,16,5.6,15
2012/1/17 14:15,2.6,16,2.6,16,3.5,15
2012/1/17 14:16,2.6,15,2.6,16,3.5,14
2012/1/17 14:17,2.5,15,2.6,16,3.3,15
2012/1/17 14:18,2.5,15,2.5,16,3.8,16
2012/1/17 14:19,2.5,15,2.5,16,2.7,15
2012/1/17 14:20,2.5,15,2.5,16,3.7,13
2012/1/17 14:21,2.4,15,2.5,16,3.7,16
2012/1/17 14:22,2.3,15,2.5,16,3,16
2012/1/17 14:23,2.1,15,2.3,16,1.8,15
2012/1/17 14:24,1.9,15,2,16,3.9,15
2012/1/17 14:25,2.1,15,2.1,16,7.8,2
2012/1/17 14:26,2.2,15,2.2,15,5.5,2
2012/1/17 14:27,2.2,16,2.3,15,3.6,16
2012/1/17 14:28,2.2,16,2.3,15,2.5,1
2012/1/17 14:29,2.1,16,2.2,15,0.6,15
2012/1/17 14:30,2,16,2.1,15,0.6,13
2012/1/17 14:31,1.8,15,2,15,1,10
2012/1/17 14:32,1.7,15,1.7,15,1.6,10
2012/1/17 14:33,1.6,15,1.6,15,1,10
2012/1/17 14:34,1.4,14,1.5,15,0.9,6
2012/1/17 14:35,1,15,1.4,15,1.5,2
2012/1/17 14:36,0.8,15,1,15,1.6,4
2012/1/17 14:37,0.7,15,0.8,16,2.4,2
2012/1/17 14:38,0.7,16,0.7,16,2.6,2
2012/1/17 14:39,0.7,1,0.7,16,5.1,2
2012/1/17 14:40,0.9,2,0.9,16,4.1,15
2012/1/17 14:41,1.1,2,1.1,15,4.3,15
2012/1/17 14:42,1.4,2,1.4,15,4.2,16
2012/1/17 14:43,1.6,1,1.6,1,3.9,16
2012/1/17 14:44,1.7,2,1.7,2,3,4
2012/1/17 14:45,1.7,2,1.7,2,2.1,1
2012/1/17 14:46,1.7,1,1.7,2,1.5,16
2012/1/17 14:47,1.6,1,1.7,2,2.1,1
2012/1/17 14:48,1.6,1,1.6,2,2.2,1
2012/1/17 14:49,1.7,1,1.7,2,1.6,2
2012/1/17 14:50,1.6,1,1.6,2,1.5,2
2012/1/17 14:51,1.4,2,1.6,2,2.5,1
2012/1/17 14:52,1.2,2,1.4,2,3,16
2012/1/17 14:53,1.1,2,1.2,2,2,1
2012/1/17 14:54,1,1,1.1,2,2.4,2
2012/1/17 14:55,1.2,1,1.2,2,5.1,2
2012/1/17 14:56,1.3,1,1.3,1,3.2,16
2012/1/17 14:57,1.4,1,1.4,1,2.7,1
2012/1/17 14:58,1.4,1,1.4,1,2.7,15
2012/1/17 14:59,1.5,1,1.5,1,5.5,1
2012/1/17 15:00,1.7,1,1.7,1,5.6,2
2012/1/17 15:01,1.8,1,1.8,1,4.1,1
2012/1/17 15:02,1.9,1,1.9,1,3.1,3
2012/1/17 15:03,2.1,1,2.1,1,6.2,2
2012/1/17 15:04,2.3,1,2.3,1,4.1,1
2012/1/17 15:05,2.2,1,2.3,1,4.4,2
2012/1/17 15:06,2.3,1,2.3,1,3.6,16
2012/1/17 15:07,2.4,1,2.4,1,3.3,2
2012/1/17 15:08,2.5,1,2.5,1,4.4,15
2012/1/17 15:09,2.7,1,2.7,1,6.1,16
2012/1/17 15:10,2.8,1,2.8,1,6.7,16
2012/1/17 15:11,2.8,1,2.8,1,4.8,2
2012/1/17 15:12,3,1,3,1,5.5,2
2012/1/17 15:13,3,1,3,1,5.8,2
2012/1/17 15:14,3,1,3.1,1,4.9,2
2012/1/17 15:15,3,1,3,1,3.2,16
2012/1/17 15:16,3,1,3,1,3.9,14
2012/1/17 15:17,3.1,1,3.1,1,4.2,16
2012/1/17 15:18,3.1,1,3.1,1,3.5,16
2012/1/17 15:19,2.8,1,3,1,2.6,16
2012/1/17 15:20,2.6,1,2.8,1,4.3,16
2012/1/17 15:21,2.7,1,2.7,1,7.2,14
2012/1/17 15:22,2.6,16,2.7,1,6.4,15
2012/1/17 15:23,2.4,16,2.6,1,3.6,16
2012/1/17 15:24,2.3,16,2.4,1,2.9,1
2012/1/17 15:25,2.4,16,2.4,1,4.1,2
2012/1/17 15:26,2.3,16,2.4,1,3.5,16
2012/1/17 15:27,2.1,16,2.2,1,2.1,2
2012/1/17 15:28,2,16,2.1,1,1.8,2
2012/1/17 15:29,2,16,2,1,1.9,2
2012/1/17 15:30,1.9,1,2,1,1.8,2
2012/1/17 15:31,1.6,1,1.9,1,0.9,4
2012/1/17 15:32,1.3,2,1.5,16,0.4,5
2012/1/17 15:33,1.1,2,1.3,16,0.4,9
2012/1/17 15:34,0.9,2,1,16,0.5,15
2012/1/17 15:35,0.7,2,0.9,16,0.4,7
2012/1/17 15:36,0.5,2,0.7,16,0.9,13
2012/1/17 15:37,0.5,16,0.6,16,1.3,13
2012/1/17 15:38,0.6,14,0.6,16,2,13
2012/1/17 15:39,0.6,13,0.6,16,3.2,16
2012/1/17 15:40,0.6,13,0.6,1,2.1,11
2012/1/17 15:41,0.6,13,0.6,1,2.7,16
2012/1/17 15:42,0.9,13,0.9,2,3.3,14
2012/1/17 15:43,1,14,1,2,2.7,12
2012/1/17 15:44,1.3,14,1.3,14,6.2,15
2012/1/17 15:45,1.8,14,1.8,14,7.1,16
2012/1/17 15:46,2.3,14,2.3,14,6.3,15
2012/1/17 15:47,2.4,14,2.4,14,3.9,1
2012/1/17 15:48,2.3,15,2.3,14,1.5,13
2012/1/17 15:49,2.3,15,2.3,14,3.3,15
2012/1/17 15:50,2.4,15,2.4,14,3.9,14
2012/1/17 15:51,2.5,15,2.5,15,3.2,12
2012/1/17 15:52,2.5,15,2.5,15,5.7,16
2012/1/17 15:53,2.7,15,2.7,15,5,15
2012/1/17 15:54,2.6,15,2.7,15,5.1,15
2012/1/17 15:55,2.4,15,2.6,15,5.4,15
2012/1/17 15:56,2.3,15,2.4,15,6.1,15
2012/1/17 15:57,2.5,15,2.5,15,5.5,15
2012/1/17 15:58,2.8,15,2.8,15,5.6,15
2012/1/17 15:59,2.9,15,2.9,15,3.8,15
2012/1/17 16:00,3.1,15,3.1,15,7.4,15
2012/1/17 16:01,3.3,15,3.3,15,7.6,15
2012/1/17 16:02,3.3,15,3.4,15,3.9,15
2012/1/17 16:03,3.4,15,3.4,15,4.4,15
2012/1/17 16:04,3.4,15,3.4,15,4.5,15
2012/1/17 16:05,3.3,15,3.4,15,3.9,16
2012/1/17 16:06,3.4,15,3.4,15,6.2,15
2012/1/17 16:07,3.3,15,3.4,15,4.9,15
2012/1/17 16:08,3.3,15,3.3,15,6.7,15
2012/1/17 16:09,3.4,15,3.4,15,4.9,15
2012/1/17 16:10,3.2,15,3.4,15,4.5,14
2012/1/17 16:11,3.2,15,3.2,15,5.2,15
2012/1/17 16:12,3.3,15,3.3,15,7.9,16
2012/1/17 16:13,3.4,15,3.4,15,7.5,15
2012/1/17 16:14,3.5,15,3.5,15,5.7,15
2012/1/17 16:15,3.6,15,3.6,15,4.8,16
2012/1/17 16:16,3.3,15,3.6,15,4.2,15
2012/1/17 16:17,3.3,15,3.3,15,4.5,15
2012/1/17 16:18,3.2,15,3.3,15,3.6,16
2012/1/17 16:19,3.2,15,3.2,15,5,14
2012/1/17 16:20,3.3,15,3.3,15,5.8,15
2012/1/17 16:21,3.2,15,3.3,15,4.9,16
2012/1/17 16:22,3.1,15,3.2,15,4.8,16
2012/1/17 16:23,2.8,15,3,15,2.9,16
2012/1/17 16:24,2.7,15,2.8,15,3,16
2012/1/17 16:25,2.5,15,2.7,15,1.9,15
2012/1/17 16:26,2.5,15,2.5,15,3.1,15
2012/1/17 16:27,2.4,15,2.5,15,3.3,16
2012/1/17 16:28,2.5,15,2.5,15,3.8,16
2012/1/17 16:29,2.4,15,2.5,15,3.1,15
2012/1/17 16:30,2.2,15,2.3,15,3.3,16
2012/1/17 16:31,2.1,15,2.2,15,3.3,16
2012/1/17 16:32,2.1,15,2.1,15,3.2,16
2012/1/17 16:33,2.1,15,2.1,15,3.5,16
2012/1/17 16:34,2.1,15,2.1,15,2.1,1
2012/1/17 16:35,2.1,16,2.1,15,3.2,1
2012/1/17 16:36,2.1,16,2.2,15,3.7,2
2012/1/17 16:37,1.9,16,2.1,15,1.9,3
2012/1/17 16:38,1.8,1,1.9,15,1.9,5
2012/1/17 16:39,1.7,1,1.8,15,1.5,1
2012/1/17 16:40,1.7,2,1.7,15,3,3
2012/1/17 16:41,1.7,2,1.7,16,4.4,4
2012/1/17 16:42,1.7,2,1.7,16,3.5,2
2012/1/17 16:43,1.6,2,1.7,16,3.3,16
2012/1/17 16:44,1.6,2,1.6,16,2.5,2
2012/1/17 16:45,1.6,2,1.6,16,2.1,1
2012/1/17 16:46,1.5,2,1.6,16,2.9,15
2012/1/17 16:47,1.6,2,1.6,16,1.5,14
2012/1/17 16:48,1.5,1,1.6,1,1.1,16
2012/1/17 16:49,1.6,1,1.6,1,1.9,16
2012/1/17 16:50,1.6,1,1.6,2,2.4,2
2012/1/17 16:51,1.4,16,1.6,2,2.7,1
2012/1/17 16:52,1.3,16,1.4,2,1.8,2
2012/1/17 16:53,1.3,16,1.3,2,1.6,1
2012/1/17 16:54,1.2,16,1.3,2,1,16
2012/1/17 16:55,1.1,16,1.2,2,1.1,1
2012/1/17 16:56,1.1,16,1.1,2,2.2,16
2012/1/17 16:57,1.1,16,1.1,2,2.5,1
2012/1/17 16:58,1.2,16,1.2,1,3.6,16
2012/1/17 16:59,1.3,16,1.3,1,2.9,16
2012/1/17 17:00,1.3,16,1.3,1,3.2,16
2012/1/17 17:01,1.4,16,1.4,16,4.1,15
2012/1/17 17:02,1.6,16,1.6,16,4.3,16
2012/1/17 17:03,1.7,16,1.7,16,2.7,15
2012/1/17 17:04,2,16,2,16,4.4,16
2012/1/17 17:05,2.2,16,2.2,16,4.8,16
2012/1/17 17:06,2.3,16,2.3,16,3.7,15
2012/1/17 17:07,2.4,16,2.4,16,3,15
2012/1/17 17:08,2.5,16,2.5,16,3.9,15
2012/1/17 17:09,2.4,16,2.4,16,2.5,1
2012/1/17 17:10,2.5,16,2.5,16,3,15
2012/1/17 17:11,2.4,16,2.5,16,3.7,16
2012/1/17 17:12,2.4,16,2.4,16,4.2,16
2012/1/17 17:13,2.5,16,2.5,16,4.1,16
2012/1/17 17:14,2.5,16,2.6,16,4.2,16
2012/1/17 17:15,2.4,16,2.5,16,3,16
2012/1/17 17:16,2.4,16,2.4,16,2.2,16
2012/1/17 17:17,2.4,16,2.4,16,2.7,15
2012/1/17 17:18,2.3,16,2.4,16,2.5,15
2012/1/17 17:19,2.3,16,2.3,16,2.7,15
2012/1/17 17:20,2.4,16,2.4,16,3.1,15
2012/1/17 17:21,2.3,16,2.4,16,2.7,16
2012/1/17 17:22,2.2,16,2.3,16,2.6,16
2012/1/17 17:23,2.1,16,2.2,16,2.6,1
2012/1/17 17:24,2,16,2.1,16,2.9,2
2012/1/17 17:25,2.1,16,2.1,16,4.3,16
2012/1/17 17:26,2.2,16,2.2,16,4.3,16
2012/1/17 17:27,2.3,16,2.3,16,4.4,16
2012/1/17 17:28,2.5,16,2.5,16,4.7,16
2012/1/17 17:29,2.6,16,2.6,16,4.5,15
2012/1/17 17:30,2.6,16,2.6,16,4.1,16
2012/1/17 17:31,2.8,16,2.8,16,4.7,16
2012/1/17 17:32,2.9,16,2.9,16,4.7,16
2012/1/17 17:33,3,16,3,16,4.4,15
2012/1/17 17:34,3.1,16,3.1,16,4.3,15
2012/1/17 17:35,3.1,16,3.1,16,3.5,15
